1528369200.1,31643,21.13,74374.3,21.23,3.45,3.75,0,*4F
1528369201.3,31644,21.06,74372.5,21.23,4.23,4.49,0,*47
1528369202.53,31645,21.06,74370.5,21.23,4.57,4.71,0,*4E
1528369203.74,31646,21.13,74374.8,21.25,4.63,4.81,0,*43
1528369204.98,31647,21.06,74368.3,21.27,4.53,4.75,0,*48
1528369206.17,31648,21.13,74372.5,21.25,3.93,4.11,0,*4C
1528369207.37,31649,21.13,74378.0,21.25,3.55,3.79,0,*4E
1528369208.61,31650,21.13,74372.8,21.25,4.31,4.59,0,*46
1528369209.86,31651,21.06,74374.3,21.25,4.05,4.31,0,*4E
1528369211.03,31652,21.06,74372.8,21.21,4.19,4.45,0,*47
1528369212.26,31653,21.06,74372.8,21.23,4.67,5.07,0,*4A
1528369213.46,31654,21.06,74372.0,21.21,5.05,5.63,0,*48
1528369214.65,31655,21.06,74372.0,21.21,5.51,6.07,0,*49
1528369215.85,31656,21.06,74372.8,21.19,5.49,6.25,0,*48
1528369217.04,31657,21.06,74372.0,21.19,5.59,6.29,0,*44
1528369218.28,31658,21.06,74372.3,21.19,5.55,6.39,0,*46
1528369219.45,31659,21.06,74374.3,21.17,5.41,6.25,0,*41
1528369220.62,31660,21.13,74374.5,21.17,5.41,6.21,0,*4F
1528369221.8,31661,21.06,74370.5,21.17,5.41,6.03,0,*4E
1528369223.04,31662,21.13,74374.3,21.15,4.71,5.19,0,*45
1528369224.22,31663,21.13,74372.0,21.13,4.27,4.57,0,*4A
1528369225.41,31664,21.06,74374.0,21.13,5.07,5.55,0,*4D
1528369226.6,31665,21.06,74368.5,21.13,5.37,5.85,0,*42
1528369227.86,31666,21.13,74372.0,21.11,5.73,6.47,0,*4E
1528369229.09,31667,21.13,74372.0,21.11,4.75,5.37,0,*4C
1528369230.32,31668,21.13,74374.8,21.07,4.37,4.97,0,*49
1528369231.54,31669,21.06,74372.0,21.03,4.01,4.81,0,*4E
1528369232.74,31670,21.13,74374.8,21.03,4.45,5.29,0,*45
1528369233.94,31671,21.13,74372.8,20.99,4.89,5.71,0,*4B
1528369235.16,31672,21.06,74372.0,20.99,4.37,5.23,0,*4A
1528369236.39,31673,21.06,74370.8,20.97,4.71,5.55,0,*46
1528369237.6,31674,21.13,74374.3,20.95,5.33,6.03,0,*44
1528369238.82,31675,21.13,74372.8,20.95,4.81,5.51,0,*49
1528369240.02,31676,21.13,74370.0,20.93,5.15,5.81,0,*4D
1528369241.23,31677,21.13,74374.0,20.91,4.79,5.23,0,*4D
1528369242.41,31678,21.13,74372.0,20.91,4.27,4.85,0,*44
1528369243.65,31679,21.06,74368.5,20.85,4.63,5.23,0,*4D
1528369244.88,31680,21.13,74374.3,20.85,4.97,5.33,0,*41
1528369246.11,31681,21.13,74370.8,20.81,4.49,5.01,0,*46
1528369247.35,31682,21.13,74372.5,20.81,4.71,5.11,0,*4F
1528369248.57,31683,21.13,74372.5,20.77,5.11,5.51,0,*44
1528369249.78,31684,21.13,74372.0,20.77,5.41,5.67,0,*43
1528369250.99,31685,21.06,74370.3,20.77,5.19,5.45,0,*4F
1528369252.21,31686,21.13,74374.3,20.73,5.07,5.27,0,*43
1528369253.43,31687,21.13,74370.3,20.73,5.71,5.77,0,*46
1528369254.62,31688,21.13,74372.3,20.71,5.33,5.23,0,*4C
1528369255.83,31689,21.13,74370.3,20.69,5.33,5.33,0,*45
1528369257.06,31690,21.13,74372.0,20.63,5.85,5.85,0,*47
1528369258.25,31691,21.13,74370.3,20.63,5.99,5.95,0,*4A
1528369259.5,31692,21.13,74374.5,20.61,5.85,5.81,0,*43
1528369260.76,31693,21.13,74372.0,20.59,6.13,6.17,0,*49
1528369261.99,31694,21.13,74372.5,20.57,6.51,6.61,0,*47
1528369263.24,31695,21.13,74372.3,20.55,7.15,7.27,0,*46
1528369264.47,31696,21.13,74370.3,20.55,6.75,6.91,0,*4E
1528369265.7,31697,21.13,74372.0,20.55,6.69,6.75,0,*48
1528369266.89,31698,21.13,74374.3,20.53,6.07,6.13,0,*49
1528369268.12,31699,21.13,74372.5,20.49,6.61,6.87,0,*4E
1528369269.36,31700,21.13,74372.0,20.49,6.35,6.51,0,*45
1528369270.58,31701,21.13,74372.5,20.47,6.25,6.33,0,*4F
1528369271.79,31702,21.06,74368.8,20.45,6.21,6.35,0,*4C
1528369273.02,31703,21.13,74372.5,20.43,5.63,5.81,0,*42
1528369274.22,31704,21.13,74370.3,20.43,5.37,5.59,0,*41
1528369275.41,31705,21.13,74370.3,20.37,6.03,6.29,0,*43
1528369276.65,31706,21.13,74368.0,20.33,6.61,6.91,0,*43
1528369277.86,31707,21.13,74372.8,20.33,7.11,7.45,0,*4C
1528369279.09,31708,21.13,74372.0,20.31,7.47,7.97,0,*4D
1528369280.33,31709,21.13,74368.5,20.31,7.11,7.41,0,*44
1528369281.53,31710,21.13,74368.0,20.29,6.83,7.19,0,*42
1528369282.74,31711,21.13,74372.8,20.29,7.19,7.51,0,*4D
1528369283.94,31712,21.13,74372.0,20.29,7.41,7.65,0,*44
1528369285.15,31713,21.13,74374.3,20.27,7.69,8.05,0,*48
1528369286.32,31714,21.13,74372.3,20.27,7.33,7.59,0,*46
1528369287.58,31715,21.06,74370.5,20.25,6.61,6.87,0,*41
1528369288.81,31716,21.13,74372.5,20.25,7.37,7.69,0,*41
1528369290.04,31717,21.13,74368.5,20.25,7.77,8.01,0,*45
1528369291.27,31718,21.13,74368.5,20.23,7.47,7.77,0,*41
1528369292.5,31719,21.13,74372.3,20.21,6.73,6.93,0,*4F
1528369293.76,31720,21.13,74372.5,20.21,6.13,6.35,0,*4F
1528369294.98,31721,21.13,74372.8,20.15,6.93,7.27,0,*43
1528369296.19,31722,21.13,74372.5,20.15,7.27,7.51,0,*4F
1528369297.43,31723,21.13,74370.8,20.15,7.73,7.95,0,*47
1528369298.67,31724,21.13,74372.0,20.15,7.61,7.83,0,*44
1528369299.88,31725,21.13,74370.3,20.15,7.59,7.83,0,*4E
1528369301.11,31726,21.13,74368.3,20.11,7.95,8.13,0,*4F
1528369302.32,31727,21.13,74372.5,20.11,7.59,7.87,0,*4C
1528369303.55,31728,21.13,74372.3,20.13,7.33,7.69,0,*4D
1528369304.75,31729,21.13,74370.0,20.11,7.51,7.83,0,*4E
1528369305.98,31730,21.13,74370.5,20.13,7.65,7.97,0,*46
1528369307.21,31731,21.13,74372.5,20.11,7.87,8.13,0,*4A
1528369308.44,31732,21.13,74370.8,20.09,7.45,7.95,0,*4F
1528369309.65,31733,21.13,74372.0,20.07,6.73,7.01,0,*49
1528369310.88,31734,21.13,74372.8,20.05,6.47,6.75,0,*49
1528369312.09,31735,21.13,74372.5,20.03,7.05,7.23,0,*4B
1528369313.32,31736,21.13,74374.8,20.03,6.43,6.61,0,*4C
1528369314.53,31737,21.13,74372.8,19.99,6.51,6.79,0,*4E
1528369315.76,31738,21.13,74374.8,19.99,6.69,6.91,0,*4C
1528369316.99,31739,21.13,74372.0,19.93,6.69,6.79,0,*41
1528369318.21,31740,21.13,74372.0,19.93,7.05,7.23,0,*4A
1528369319.45,31741,21.13,74372.5,19.93,6.75,6.91,0,*45
1528369320.68,31742,21.13,74374.0,19.89,6.97,7.27,0,*4D
1528369321.92,31743,21.13,74372.5,19.89,7.27,7.37,0,*47
1528369323.15,31744,21.13,74370.3,19.89,7.83,8.09,0,*4C
1528369324.38,31745,21.13,74372.5,19.89,7.95,8.23,0,*42
1528369325.64,31746,21.13,74372.0,19.89,7.73,7.95,0,*4B
1528369326.87,31747,21.13,74374.0,19.85,7.23,7.37,0,*4B
1528369328.13,31748,21.13,74370.3,19.85,6.43,6.65,0,*45
1528369329.33,31749,21.13,74370.3,19.83,6.75,6.91,0,*4C
1528369330.57,31750,21.13,74370.3,19.81,7.27,7.51,0,*4D
1528369331.83,31751,21.13,74374.8,19.81,7.47,7.65,0,*4D
1528369333.07,31752,21.13,74374.3,19.81,7.95,8.19,0,*45
1528369334.27,31753,21.13,74374.0,19.79,7.77,8.09,0,*4E
1528369335.47,31754,21.13,74370.3,19.79,6.61,6.83,0,*43
1528369336.71,31755,21.13,74372.5,19.77,6.21,6.47,0,*40
1528369337.9,31756,21.13,74374.8,19.75,6.69,7.01,0,*4E
1528369339.11,31757,21.13,74374.3,19.71,6.29,6.61,0,*48
1528369340.31,31758,21.13,74374.5,19.71,7.11,7.33,0,*4B
1528369341.49,31759,21.13,74372.5,19.67,6.79,7.05,0,*47
1528369342.75,31760,21.13,74374.3,19.65,6.35,6.65,0,*40
1528369343.99,31761,21.13,74370.5,19.67,6.47,6.65,0,*46
1528369345.24,31762,21.13,74370.8,19.63,6.65,6.87,0,*4D
1528369346.45,31763,21.13,74372.0,19.61,6.93,7.11,0,*49
1528369347.65,31764,21.13,74370.5,19.61,6.87,7.09,0,*42
1528369348.85,31765,21.13,74374.8,19.59,6.11,6.21,0,*4C
1528369350.1,31766,21.13,74370.3,19.59,6.47,6.73,0,*4B
1528369351.3,31767,21.13,74374.5,19.57,6.83,7.11,0,*49
1528369352.53,31768,21.13,74376.3,19.57,6.47,6.73,0,*4B
1528369353.79,31769,21.13,74372.3,19.55,6.39,6.51,0,*41
1528369354.98,31770,21.13,74372.3,19.49,6.03,6.25,0,*4E
1528369356.2,31771,21.13,74372.8,19.49,6.25,6.39,0,*46
1528369357.46,31772,21.13,74372.3,19.47,6.13,6.35,0,*42
1528369358.69,31773,21.13,74374.8,19.45,6.65,6.87,0,*49
1528369359.95,31774,21.13,74376.0,19.43,6.69,6.91,0,*43
1528369361.16,31775,21.13,74374.3,19.45,7.09,7.23,0,*4B
1528369362.37,31776,21.13,74372.0,19.41,5.81,6.03,0,*4D
1528369363.55,31777,21.13,74372.8,19.41,6.83,7.05,0,*4A
1528369364.76,31778,21.13,74374.3,19.39,7.01,7.29,0,*4F
1528369365.97,31779,21.13,74372.3,19.37,6.51,6.83,0,*45
1528369367.2,31780,21.13,74372.3,19.37,6.91,7.15,0,*41
1528369368.43,31781,21.13,74374.5,19.37,7.27,7.47,0,*4B
1528369369.62,31782,21.13,74370.5,19.37,7.79,8.09,0,*46
1528369370.88,31783,21.13,74374.3,19.35,7.77,8.13,0,*40
1528369372.11,31784,21.13,74370.5,19.35,7.59,7.91,0,*4E
1528369373.32,31785,21.13,74374.5,19.37,7.41,7.73,0,*48
1528369374.52,31786,21.13,74374.0,19.37,7.73,8.09,0,*48
1528369375.71,31787,21.13,74372.3,19.37,7.79,8.09,0,*43
1528369376.94,31788,21.13,74372.8,19.37,7.15,7.47,0,*43
1528369378.19,31789,21.13,74374.5,19.35,7.65,7.83,0,*4F
1528369379.38,31790,21.13,74374.8,19.33,7.79,8.05,0,*4D
1528369380.61,31791,21.13,74374.0,19.35,7.01,7.27,0,*4A
1528369381.84,31792,21.13,74372.5,19.35,7.55,7.83,0,*46
1528369383.05,31793,21.13,74374.5,19.33,7.77,8.19,0,*4D
1528369384.28,31794,21.13,74374.8,19.35,7.47,7.79,0,*46
1528369385.51,31795,21.13,74368.3,19.35,7.45,7.65,0,*48
1528369386.72,31796,21.13,74372.3,19.33,6.43,6.83,0,*43
1528369387.94,31797,21.13,74372.0,19.33,6.73,6.97,0,*44
1528369389.14,31798,21.13,74374.0,19.31,6.73,6.93,0,*4D
1528369390.32,31799,21.13,74374.0,19.27,7.05,7.29,0,*4B
1528369391.54,31800,21.13,74372.0,19.27,5.01,5.11,0,*4B
1528369392.73,31801,21.13,74372.5,19.23,5.73,6.07,0,*4F
1528369393.93,31802,21.13,74374.8,19.23,7.11,7.45,0,*4D
1528369395.13,31803,21.13,74374.3,19.23,7.51,7.77,0,*49
1528369396.36,31804,21.13,74374.5,19.23,6.87,7.19,0,*4C
1528369397.61,31805,21.13,74372.0,19.21,6.87,7.23,0,*46
1528369398.83,31806,21.13,74374.8,19.21,6.97,7.29,0,*4E
1528369400.05,31807,21.13,74372.0,19.21,6.21,6.53,0,*4E
1528369401.31,31808,21.13,74374.8,19.21,6.13,6.51,0,*42
1528369402.5,31809,21.13,74372.8,19.19,6.97,7.29,0,*4A
1528369403.73,31810,21.13,74374.8,19.17,7.61,8.01,0,*41
1528369404.99,31811,21.13,74374.3,19.17,7.69,8.13,0,*4B
1528369406.21,31812,21.13,74374.0,19.19,7.19,7.47,0,*4F
1528369407.39,31813,21.13,74374.5,19.19,7.05,7.41,0,*45
1528369408.57,31814,21.13,74374.5,19.19,6.83,7.09,0,*41
1528369409.82,31815,21.13,74372.3,19.17,6.57,6.91,0,*47
1528369411.05,31816,21.13,74374.3,19.17,5.95,6.13,0,*43
1528369412.28,31817,21.13,74370.3,19.17,6.79,7.15,0,*44
1528369413.48,31818,21.13,74374.5,19.15,6.25,6.57,0,*47
1528369414.68,31819,21.13,74376.0,19.15,5.85,5.95,0,*42
1528369415.91,31820,21.13,74374.0,19.11,6.17,6.61,0,*4C
1528369417.11,31821,21.13,74372.8,19.11,6.61,6.83,0,*40
1528369418.32,31822,21.13,74372.8,19.11,6.93,7.19,0,*4C
1528369419.52,31823,21.13,74374.0,19.11,6.93,7.19,0,*4D
1528369420.73,31824,21.13,74374.5,19.11,6.79,7.19,0,*4E
1528369421.96,31825,21.13,74372.5,19.13,6.83,7.19,0,*48
1528369423.22,31826,21.13,74374.3,19.13,6.61,6.91,0,*46
1528369424.42,31827,21.13,74374.5,19.11,6.25,6.57,0,*4F
1528369425.68,31828,21.13,74372.5,19.09,6.35,6.61,0,*4D
1528369426.91,31829,21.13,74374.8,19.07,6.53,6.91,0,*4D
1528369428.12,31830,21.13,74374.5,19.07,6.65,7.01,0,*48
1528369429.35,31831,21.13,74372.8,19.07,6.69,7.11,0,*44
1528369430.55,31832,21.13,74372.3,19.07,6.79,7.15,0,*42
1528369431.76,31833,21.13,74372.8,19.07,6.47,6.83,0,*40
1528369432.97,31834,21.13,74372.5,19.07,6.21,6.65,0,*4F
1528369434.17,31835,21.13,74370.5,19.03,5.27,5.71,0,*49
1528369435.41,31836,21.13,74374.0,19.01,5.89,6.25,0,*4E
1528369436.63,31837,21.13,74370.5,18.99,5.45,5.93,0,*41
1528369437.86,31838,21.13,74372.3,18.99,6.47,6.93,0,*4C
1528369439.11,31839,21.13,74374.3,18.99,6.13,6.53,0,*40
1528369440.31,31840,21.13,74374.8,18.97,5.85,6.25,0,*4D
1528369441.5,31841,21.13,74370.8,18.97,6.25,6.79,0,*4C
1528369442.71,31842,21.13,74374.5,18.95,5.63,6.03,0,*41
1528369443.94,31843,21.13,74374.3,18.95,5.73,6.25,0,*45
1528369445.19,31844,21.13,74374.3,18.95,5.77,6.47,0,*42
1528369446.44,31845,21.13,74372.0,18.95,5.77,6.43,0,*47
1528369447.65,31846,21.13,74372.0,18.93,4.45,5.05,0,*43
1528369448.88,31847,21.13,74374.8,18.89,4.75,5.51,0,*4B
1528369450.12,31848,21.13,74374.0,18.89,4.75,5.55,0,*40
1528369451.35,31849,21.13,74374.8,18.91,5.33,6.17,0,*4E
1528369452.53,31850,21.13,74372.5,18.89,4.85,5.67,0,*47
1528369453.77,31851,21.13,74372.5,18.89,4.67,5.55,0,*4B
1528369454.98,31852,21.13,74376.3,18.89,4.71,5.45,0,*4E
1528369456.22,31853,21.13,74374.8,18.87,4.59,5.33,0,*4A
1528369457.43,31854,21.13,74372.3,18.89,4.97,5.63,0,*44
1528369458.65,31855,21.13,74372.5,18.85,3.67,4.23,0,*44
1528369459.84,31856,21.13,74374.8,18.85,4.23,4.57,0,*43
1528369461.05,31857,21.13,74372.8,18.81,4.27,4.63,0,*45
1528369462.27,31858,21.13,74374.0,18.85,4.37,4.59,0,*46
1528369463.48,31859,21.13,74374.0,18.81,4.45,4.67,0,*4B
1528369464.74,31860,21.13,74372.5,18.79,4.63,4.67,0,*42
1528369465.98,31861,21.13,74374.0,18.77,4.79,4.75,0,*45
1528369467.25,31862,21.13,74374.8,18.79,5.05,4.97,0,*4E
1528369468.49,31863,21.13,74374.0,18.79,5.11,4.79,0,*4A
1528369469.73,31864,21.13,74374.8,18.77,4.71,4.31,0,*48
1528369470.99,31865,21.13,74370.3,18.75,4.97,4.59,0,*4D
1528369472.22,31866,21.13,74374.5,18.75,5.29,4.79,0,*48
1528369473.45,31867,21.13,74374.3,18.75,4.97,4.49,0,*4E
1528369474.71,31868,21.13,74374.0,18.75,5.05,4.71,0,*40
1528369475.92,31869,21.13,74374.8,18.75,5.59,5.19,0,*47
1528369477.11,31870,21.13,74372.8,18.73,5.59,5.15,0,*45
1528369478.34,31871,21.13,74372.3,18.71,5.37,4.93,0,*41
1528369479.53,31872,21.13,74372.3,18.69,5.23,4.89,0,*45
1528369480.76,31873,21.13,74374.0,18.69,5.51,5.01,0,*40
1528369481.94,31874,21.13,74372.5,18.67,5.23,4.89,0,*4D
1528369483.12,31875,21.13,74374.8,18.67,5.67,5.33,0,*4C
1528369484.31,31876,21.13,74372.5,18.63,6.21,5.99,0,*4A
1528369485.51,31877,21.13,74372.5,18.63,5.95,5.77,0,*47
1528369486.69,31878,21.13,74372.0,18.63,6.07,5.95,0,*4C
1528369487.87,31879,21.13,74374.8,18.59,5.95,5.95,0,*4C
1528369489.1,31880,21.13,74374.0,18.59,6.13,6.17,0,*4E
1528369490.33,31881,21.13,74370.8,18.59,6.13,6.17,0,*4F
1528369491.54,31882,21.13,74374.8,18.57,6.11,6.11,0,*46
1528369492.78,31883,21.13,74374.8,18.57,6.29,6.51,0,*48
1528369493.99,31884,21.13,74372.0,18.55,6.79,6.91,0,*44
1528369495.21,31885,21.13,74374.5,18.55,6.57,6.69,0,*4E
1528369496.4,31886,21.13,74372.5,18.55,7.01,7.15,0,*45
1528369497.58,31887,21.13,74374.8,18.55,6.75,6.93,0,*49
1528369498.81,31888,21.13,74372.8,18.55,6.87,7.11,0,*40
1528369500.03,31889,21.13,74374.8,18.53,6.53,6.79,0,*41
1528369501.28,31890,21.13,74374.3,18.53,6.91,7.15,0,*4C
1528369502.5,31891,21.13,74372.8,18.53,7.01,7.23,0,*40
1528369503.73,31892,21.13,74372.3,18.53,6.43,6.75,0,*46
1528369504.93,31893,21.19,74376.8,18.49,6.79,7.09,0,*4F
1528369506.19,31894,21.13,74370.8,18.49,6.87,7.27,0,*45
1528369507.38,31895,21.13,74374.0,18.51,6.97,7.29,0,*42
1528369508.6,31896,21.13,74374.8,18.49,6.79,7.15,0,*47
1528369509.86,31897,21.13,74374.0,18.49,7.15,7.47,0,*4A
1528369511.08,31898,21.13,74374.0,18.47,7.19,7.47,0,*47
1528369512.28,31899,21.13,74374.0,18.47,6.93,7.27,0,*43
1528369513.45,31900,21.13,74374.5,18.47,6.83,7.09,0,*4F
1528369514.65,31901,21.13,74372.5,18.47,6.93,7.19,0,*4E
1528369515.87,31902,21.13,74372.3,18.45,6.57,7.01,0,*4E
1528369517.07,31903,21.13,74368.8,18.47,6.83,7.15,0,*41
1528369518.33,31904,21.13,74370.8,18.45,6.47,6.65,0,*4A
1528369519.55,31905,21.13,74372.8,18.45,6.75,7.11,0,*48
1528369520.73,31906,21.13,74370.8,18.43,7.09,7.45,0,*46
1528369521.93,31907,21.13,74372.3,18.43,6.07,6.39,0,*42
1528369523.16,31908,21.13,74370.8,18.41,6.29,6.53,0,*4F
1528369524.36,31909,21.13,74374.3,18.37,6.75,7.05,0,*44
1528369525.57,31910,21.13,74372.5,18.35,6.11,6.33,0,*48
1528369526.8,31911,21.13,74372.8,18.37,6.25,6.57,0,*4E
1528369528.05,31912,21.13,74374.8,18.35,6.43,6.69,0,*42
1528369529.28,31913,21.13,74370.8,18.35,6.33,6.53,0,*4D
1528369530.46,31914,21.13,74372.3,18.33,7.01,7.29,0,*40
1528369531.7,31915,21.13,74372.8,18.31,7.29,7.69,0,*4D
1528369532.93,31916,21.13,74372.3,18.31,7.55,7.91,0,*42
1528369534.15,31917,21.13,74372.3,18.33,7.65,7.87,0,*45
1528369535.4,31918,21.13,74368.3,18.31,6.43,6.61,0,*44
1528369536.66,31919,21.13,74370.5,18.31,6.51,6.69,0,*4E
1528369537.88,31920,21.13,74370.8,18.31,6.53,6.79,0,*47
1528369539.11,31921,21.13,74374.3,18.31,7.09,7.23,0,*46
1528369540.33,31922,21.13,74368.8,18.31,6.87,7.01,0,*42
1528369541.56,31923,21.13,74368.8,18.31,6.87,7.09,0,*4B
1528369542.74,31924,21.13,74368.3,18.29,6.75,6.93,0,*4A
1528369543.97,31925,21.13,74370.8,18.29,6.65,6.87,0,*4F
1528369545.15,31926,21.13,74370.3,18.29,6.93,7.09,0,*42
1528369546.37,31927,21.13,74372.8,18.27,6.97,7.29,0,*4B
1528369547.58,31928,21.13,74368.0,18.25,6.83,7.11,0,*48
1528369548.78,31929,21.13,74370.8,18.25,6.61,7.05,0,*40
1528369550.0,31930,21.13,74372.0,18.25,6.25,6.61,0,*4B
1528369551.23,31931,21.13,74368.5,18.23,6.65,6.97,0,*41
1528369552.49,31932,21.13,74374.0,18.23,6.43,6.87,0,*47
1528369553.73,31933,21.13,74368.8,18.23,6.57,6.97,0,*42
1528369554.95,31934,21.13,74372.8,18.23,6.11,6.57,0,*4B
1528369556.15,31935,21.13,74374.5,18.21,6.53,7.05,0,*48
1528369557.35,31936,21.19,74374.8,18.19,6.83,7.33,0,*48
1528369558.59,31937,21.19,74374.3,18.19,6.51,6.93,0,*4D
1528369559.85,31938,21.13,74370.5,18.19,6.13,6.73,0,*4A
1528369561.07,31939,21.13,74370.8,18.17,5.73,6.33,0,*44
1528369562.25,31940,21.13,74372.3,18.13,5.63,6.07,0,*48
1528369563.45,31941,21.13,74370.5,18.13,5.95,6.53,0,*41
1528369564.64,31942,21.19,74372.3,18.13,6.33,6.79,0,*45
1528369565.87,31943,21.13,74372.0,18.09,6.17,6.73,0,*43
1528369567.08,31944,21.13,74368.3,18.11,6.33,6.79,0,*41
1528369568.29,31945,21.19,74372.8,18.11,6.33,6.75,0,*4C
1528369569.53,31946,21.13,74370.8,18.11,5.89,6.33,0,*4F
1528369570.76,31947,21.19,74372.8,18.09,6.13,6.53,0,*41
1528369572.0,31948,21.19,74374.5,18.07,5.89,6.25,0,*41
1528369573.24,31949,21.13,74370.3,18.07,5.89,6.25,0,*40
1528369574.48,31950,21.13,74372.3,18.05,5.89,6.39,0,*47
1528369575.68,31951,21.19,74374.5,18.03,5.77,6.33,0,*4B
1528369576.91,31952,21.13,74370.0,18.03,5.89,6.43,0,*4E
1528369578.09,31953,21.13,74368.5,18.03,6.33,6.75,0,*48
1528369579.35,31954,21.13,74368.3,18.01,6.73,7.11,0,*4A
1528369580.58,31955,21.19,74372.3,18.01,6.53,6.97,0,*46
1528369581.81,31956,21.19,74374.5,18.01,6.29,6.65,0,*45
1528369583.06,31957,21.13,74372.8,18.01,6.17,6.61,0,*4D
1528369584.28,31958,21.13,74372.5,18.01,6.03,6.33,0,*40
1528369585.45,31959,21.13,74372.5,17.99,5.45,5.71,0,*4B
1528369586.67,31960,21.13,74370.8,17.97,5.45,5.77,0,*49
1528369587.91,31961,21.13,74368.3,17.97,5.55,5.81,0,*40
1528369589.11,31962,21.13,74370.8,17.95,5.27,5.41,0,*48
1528369590.29,31963,21.13,74374.0,17.91,5.11,5.33,0,*4D
1528369591.49,31964,21.19,74372.0,17.91,4.81,5.05,0,*47
1528369592.72,31965,21.13,74372.3,17.89,5.63,5.85,0,*4A
1528369593.91,31966,21.19,74372.3,17.87,5.99,6.11,0,*4C
1528369595.1,31967,21.19,74372.8,17.87,6.03,6.29,0,*46
1528369596.3,31968,21.13,74372.3,17.87,5.77,6.03,0,*41
1528369597.51,31969,21.19,74374.0,17.87,6.25,6.39,0,*4D
1528369598.75,31970,21.13,74370.5,17.85,6.11,6.17,0,*4C
1528369599.97,31971,21.13,74370.8,17.85,5.71,5.77,0,*4D
1528369601.21,31972,21.13,74372.8,17.81,5.23,5.27,0,*48
1528369602.43,31973,21.13,74370.3,17.81,5.71,5.85,0,*46
1528369603.66,31974,21.13,74368.0,17.81,5.63,5.73,0,*4B
1528369604.88,31975,21.13,74370.5,17.79,5.81,5.99,0,*45
1528369606.11,31976,21.19,74372.8,17.79,6.17,6.39,0,*43
1528369607.37,31977,21.13,74370.8,17.77,6.39,6.51,0,*4E
1528369608.63,31978,21.19,74374.8,17.77,6.51,6.69,0,*44
1528369609.88,31979,21.19,74372.0,17.75,6.35,6.47,0,*49
1528369611.08,31980,21.13,74370.5,17.75,6.57,6.83,0,*43
1528369612.29,31981,21.19,74374.0,17.75,6.69,6.83,0,*4F
1528369613.52,31982,21.13,74368.0,17.75,6.47,6.53,0,*4D
1528369614.75,31983,21.19,74374.3,17.73,6.73,6.79,0,*45
1528369615.99,31984,21.13,74368.8,17.73,6.61,6.75,0,*4D
1528369617.2,31985,21.13,74370.3,17.69,6.29,6.39,0,*43
1528369618.4,31986,21.19,74374.3,17.73,6.07,6.29,0,*46
1528369619.62,31987,21.13,74372.0,17.69,6.29,6.43,0,*4C
1528369620.84,31988,21.19,74370.5,17.69,6.39,6.61,0,*42
1528369622.03,31989,21.13,74368.0,17.65,6.21,6.33,0,*41
1528369623.26,31990,21.19,74374.5,17.65,5.85,5.93,0,*4D
1528369624.5,31991,21.13,74370.3,17.63,6.03,6.13,0,*4C
1528369625.76,31992,21.13,74370.5,17.63,5.89,6.13,0,*4E
1528369626.98,31993,21.19,74372.3,17.61,6.29,6.43,0,*41
1528369628.19,31994,21.19,74370.8,17.61,6.21,6.39,0,*43
1528369629.45,31995,21.19,74374.3,17.59,6.17,6.39,0,*4C
1528369630.66,31996,21.19,74372.8,17.57,6.03,6.13,0,*4C
1528369631.84,31997,21.19,74370.8,17.57,6.07,6.25,0,*4C
1528369633.03,31998,21.19,74374.5,17.53,6.21,6.25,0,*43
1528369634.24,31999,21.13,74368.5,17.53,5.89,6.07,0,*43
1528369635.44,32000,21.13,74370.3,17.53,6.33,6.53,0,*4A
1528369636.66,32001,21.19,74370.3,17.53,5.85,5.99,0,*40
1528369637.89,32002,21.19,74372.8,17.49,6.17,6.39,0,*49
1528369639.07,32003,21.13,74368.8,17.49,5.95,6.07,0,*4C
1528369640.29,32004,21.13,74370.8,17.45,6.25,6.35,0,*4E
1528369641.52,32005,21.19,74370.5,17.43,6.33,6.57,0,*4A
1528369642.73,32006,21.19,74372.5,17.43,5.95,5.99,0,*47
1528369643.93,32007,21.13,74368.8,17.43,5.19,5.37,0,*46
1528369645.17,32008,21.13,74368.0,17.39,5.85,6.03,0,*45
1528369646.36,32009,21.19,74374.0,17.37,6.03,6.25,0,*43
1528369647.57,32010,21.19,74372.8,17.37,6.25,6.43,0,*4F
1528369648.84,32011,21.19,74368.0,17.35,6.13,6.47,0,*4D
1528369650.06,32012,21.19,74370.3,17.33,6.47,6.69,0,*45
1528369651.26,32013,21.19,74368.8,17.33,5.77,5.95,0,*44
1528369652.44,32014,21.19,74368.8,17.33,5.95,6.07,0,*47
1528369653.67,32015,21.19,74368.8,17.31,5.71,5.81,0,*43
1528369654.87,32016,21.19,74374.3,17.27,5.49,5.71,0,*43
1528369656.08,32017,21.19,74370.3,17.23,5.19,5.37,0,*41
1528369657.29,32018,21.19,74374.0,17.21,5.41,5.51,0,*41
1528369658.49,32019,21.19,74370.5,17.19,5.33,5.49,0,*47
1528369659.67,32020,21.19,74372.8,17.17,5.19,5.33,0,*46
1528369660.87,32021,21.19,74374.5,17.17,5.71,5.81,0,*40
1528369662.06,32022,21.19,74372.5,17.13,5.19,5.29,0,*4B
1528369663.24,32023,21.13,74368.5,17.13,5.19,5.33,0,*41
1528369664.43,32024,21.19,74370.5,17.13,5.19,5.33,0,*46
1528369665.64,32025,21.19,74372.0,17.09,5.71,5.93,0,*48
1528369666.84,32026,21.19,74374.3,17.07,5.67,5.89,0,*49
1528369668.04,32027,21.19,74372.0,17.07,5.77,6.03,0,*48
1528369669.29,32028,21.19,74372.8,17.05,5.85,6.13,0,*49
1528369670.51,32029,21.19,74372.0,17.05,5.45,5.51,0,*41
1528369671.72,32030,21.19,74372.5,17.01,5.07,5.23,0,*4E
1528369672.93,32031,21.19,74372.3,16.97,5.67,6.03,0,*46
1528369674.12,32032,21.13,74368.3,16.95,6.03,6.25,0,*42
1528369675.32,32033,21.19,74372.0,16.95,5.45,5.55,0,*46
1528369676.49,32034,21.19,74372.0,16.95,6.07,6.29,0,*4C
1528369677.75,32035,21.19,74368.8,16.93,6.43,6.61,0,*47
1528369678.95,32036,21.19,74374.5,16.91,6.79,7.11,0,*49
1528369680.21,32037,21.19,74370.8,16.93,6.91,7.15,0,*48
1528369681.43,32038,21.19,74370.5,16.93,7.01,7.23,0,*4A
1528369682.66,32039,21.19,74372.3,16.91,6.69,6.87,0,*49
1528369683.86,32040,21.19,74372.3,16.91,7.01,7.11,0,*46
1528369685.07,32041,21.13,74370.8,16.91,7.09,7.27,0,*4A
1528369686.31,32042,21.19,74372.0,16.91,7.11,7.27,0,*40
1528369687.52,32043,21.19,74368.8,16.91,6.87,7.09,0,*43
1528369688.75,32044,21.19,74370.5,16.89,6.53,6.83,0,*47
1528369689.96,32045,21.19,74370.3,16.87,6.25,6.51,0,*46
1528369691.17,32046,21.19,74370.5,16.87,5.49,5.81,0,*42
1528369692.41,32047,21.19,74372.3,16.87,6.13,6.51,0,*41
1528369693.64,32048,21.19,74372.3,16.87,6.39,6.73,0,*46
1528369694.86,32049,21.19,74374.5,16.85,6.73,7.05,0,*4B
1528369696.09,32050,21.19,74374.3,16.85,6.83,7.27,0,*4C
1528369697.31,32051,21.19,74370.8,16.87,6.51,6.75,0,*46
1528369698.54,32052,21.19,74372.8,16.85,7.11,7.29,0,*4A
1528369699.75,32053,21.19,74374.3,16.83,6.93,7.27,0,*48
1528369700.96,32054,21.19,74370.0,16.83,7.15,7.41,0,*40
1528369702.17,32055,21.19,74372.3,16.83,6.73,7.05,0,*40
1528369703.38,32056,21.19,74374.5,16.83,5.81,6.03,0,*4A
1528369704.61,32057,21.19,74374.0,16.81,6.11,6.39,0,*4A
1528369705.85,32058,21.19,74372.5,16.81,6.65,7.01,0,*4C
1528369707.05,32059,21.19,74372.3,16.81,6.75,7.01,0,*4C
1528369708.25,32060,21.13,74368.5,16.81,7.01,7.37,0,*41
1528369709.48,32061,21.19,74374.5,16.81,7.15,7.45,0,*40
1528369710.71,32062,21.19,74370.0,16.77,6.07,6.39,0,*42
1528369711.94,32063,21.13,74370.8,16.77,6.25,6.61,0,*4E
1528369713.18,32064,21.19,74370.3,16.75,5.93,6.25,0,*45
1528369714.44,32065,21.19,74374.5,16.75,6.35,6.61,0,*4B
1528369715.67,32066,21.19,74372.0,16.75,6.57,7.01,0,*4B
1528369716.87,32067,21.19,74372.3,16.73,6.33,6.57,0,*4C
1528369718.09,32068,21.19,74374.3,16.73,6.21,6.47,0,*41
1528369719.32,32069,21.13,74370.0,16.75,6.33,6.69,0,*49
1528369720.53,32070,21.19,74372.0,16.73,6.79,7.15,0,*43
1528369721.73,32071,21.19,74372.8,16.73,6.79,7.15,0,*42